TAP1549 LPPT-GVAC

Flight info

Callsign TAP1549
Flight time 3h 47m
Altitude 37000
Route ULVOT DCT BEXAL UN866 KUBIL/N0446F390 UN866 KONBA DCT GURKA DCT BRICK DCT GOMER/N0452F380 N866 TENPA DCT PINPO PINPO1F
Aircraft A20N/M-SADE3FGHIJ1RWXYZ/LB1

Departure

Time 2026-04-21 14:06
Airport Lisbon Humberto Delgado Airport (LPPT)

Arrival

Time 2026-04-21 17:53
Airport Amílcar Cabral International Airport (GVAC)
Time Latitude Longitude Altitude Speed Heading
2026-04-21 13:23 38.78028 -9.12927 351 ft 0 kts 304°
2026-04-21 13:51 38.78018 -9.12907 361 ft 4 kts 303°
2026-04-21 13:52 38.78004 -9.12879 361 ft 4 kts 300°
2026-04-21 13:52 38.77996 -9.12858 361 ft 2 kts 276°
2026-04-21 13:52 38.77997 -9.12844 360 ft 1 kts 226°
2026-04-21 13:52 38.77998 -9.12842 361 ft 0 kts 219°
2026-04-21 13:53 38.78000 -9.12840 351 ft 2 kts 218°
2026-04-21 13:53 38.78009 -9.12832 351 ft 2 kts 211°
2026-04-21 13:53 38.78012 -9.12829 361 ft 0 kts 210°
2026-04-21 14:00 38.78011 -9.12830 360 ft 1 kts 210°
2026-04-21 14:00 38.78001 -9.12838 351 ft 3 kts 213°
2026-04-21 14:01 38.77956 -9.12876 353 ft 12 kts 213°
2026-04-21 14:01 38.77856 -9.12960 354 ft 20 kts 213°
2026-04-21 14:01 38.77771 -9.13078 357 ft 18 kts 253°
2026-04-21 14:01 38.77748 -9.13235 353 ft 17 kts 257°
2026-04-21 14:02 38.77745 -9.13323 351 ft 11 kts 306°
2026-04-21 14:02 38.77849 -9.13370 351 ft 13 kts 346°
2026-04-21 14:02 38.77947 -9.13394 352 ft 15 kts 347°
2026-04-21 14:03 38.78101 -9.13381 354 ft 1 kts 22°
2026-04-21 14:03 38.78113 -9.13375 358 ft 2 kts 22°
2026-04-21 14:03 38.78137 -9.13359 353 ft 7 kts 26°
2026-04-21 14:03 38.78231 -9.13310 357 ft 19 kts 22°
2026-04-21 14:04 38.78351 -9.13246 353 ft 12 kts 21°
2026-04-21 14:04 38.78442 -9.13214 358 ft 16 kts
2026-04-21 14:04 38.78539 -9.13298 350 ft 19 kts 298°
2026-04-21 14:04 38.78529 -9.13381 353 ft 4 kts 196°
2026-04-21 14:05 38.78528 -9.13381 353 ft 0 kts 195°
2026-04-21 14:05 38.78499 -9.13399 357 ft 25 kts 201°
2026-04-21 14:05 38.78128 -9.13595 358 ft 89 kts 202°
2026-04-21 14:05 38.77388 -9.13998 379 ft 134 kts 205°
2026-04-21 14:06 38.76520 -9.14479 851 ft 136 kts 201°
2026-04-21 14:06 38.75630 -9.14895 1505 ft 136 kts 200°
2026-04-21 14:06 38.74764 -9.15282 2181 ft 131 kts 202°
2026-04-21 14:06 38.73879 -9.15737 2573 ft 147 kts 204°
2026-04-21 14:07 38.72859 -9.16298 2961 ft 168 kts 204°
2026-04-21 14:07 38.71713 -9.16935 3386 ft 190 kts 204°
2026-04-21 14:07 38.70437 -9.17639 3877 ft 210 kts 204°
2026-04-21 14:07 38.69026 -9.18412 4352 ft 229 kts 203°
2026-04-21 14:08 38.67496 -9.19244 4856 ft 246 kts 203°
2026-04-21 14:08 38.65933 -9.20094 5903 ft 241 kts 202°
2026-04-21 14:08 38.64405 -9.20929 6958 ft 239 kts 200°
2026-04-21 14:08 38.62838 -9.21580 7794 ft 242 kts 194°
2026-04-21 14:09 38.61191 -9.22145 8738 ft 242 kts 194°
2026-04-21 14:09 38.59564 -9.22698 9694 ft 242 kts 191°
2026-04-21 14:09 38.57859 -9.22911 10276 ft 255 kts 191°
2026-04-21 14:09 38.56175 -9.23798 10499 ft 280 kts 208°
2026-04-21 14:10 38.54481 -9.25210 10828 ft 298 kts 212°
2026-04-21 14:10 38.52780 -9.26755 11591 ft 302 kts 213°
2026-04-21 14:10 38.51061 -9.28330 12356 ft 306 kts 214°
2026-04-21 14:10 38.49295 -9.29930 13120 ft 310 kts 214°
2026-04-21 14:11 38.47519 -9.31519 13839 ft 314 kts 214°
2026-04-21 14:11 38.45741 -9.33100 14489 ft 317 kts 214°
2026-04-21 14:11 38.43915 -9.34717 15138 ft 321 kts 214°
2026-04-21 14:11 38.42065 -9.36353 15784 ft 325 kts 214°
2026-04-21 14:12 38.40195 -9.38007 16416 ft 330 kts 214°
2026-04-21 14:12 38.38341 -9.39644 17026 ft 334 kts 214°
2026-04-21 14:12 38.36376 -9.41379 17671 ft 338 kts 215°
2026-04-21 14:12 38.34435 -9.43091 18270 ft 341 kts 215°
2026-04-21 14:13 38.32473 -9.44822 18835 ft 344 kts 214°
2026-04-21 14:13 38.30522 -9.46541 19413 ft 347 kts 214°
2026-04-21 14:13 38.28533 -9.48293 19970 ft 349 kts 214°
2026-04-21 14:13 38.26530 -9.50056 20539 ft 352 kts 214°
2026-04-21 14:14 38.24507 -9.51835 21076 ft 355 kts 214°
2026-04-21 14:14 38.22468 -9.53627 21624 ft 358 kts 214°
2026-04-21 14:14 38.20412 -9.55433 22166 ft 360 kts 214°
2026-04-21 14:14 38.18343 -9.57249 22705 ft 363 kts 214°
2026-04-21 14:15 38.16961 -9.58461 23052 ft 365 kts 214°
2026-04-21 14:15 38.14835 -9.60325 23551 ft 368 kts 214°
2026-04-21 14:15 38.12752 -9.62150 24000 ft 370 kts 214°
2026-04-21 14:15 38.10628 -9.64010 24464 ft 372 kts 214°
2026-04-21 14:16 38.08460 -9.65906 24911 ft 374 kts 214°
2026-04-21 14:16 38.06314 -9.67782 25355 ft 376 kts 214°
2026-04-21 14:16 38.04186 -9.69642 25761 ft 378 kts 214°
2026-04-21 14:16 38.02016 -9.71536 26178 ft 380 kts 214°
2026-04-21 14:17 37.99830 -9.73443 26608 ft 382 kts 214°
2026-04-21 14:17 37.97772 -9.75237 26982 ft 384 kts 214°
2026-04-21 14:17 37.95569 -9.77156 27368 ft 386 kts 214°
2026-04-21 14:17 37.93347 -9.79090 27754 ft 388 kts 214°
2026-04-21 14:18 37.91124 -9.81024 28111 ft 390 kts 214°
2026-04-21 14:18 37.88884 -9.82970 28458 ft 392 kts 214°
2026-04-21 14:18 37.86631 -9.84927 28797 ft 394 kts 214°
2026-04-21 14:18 37.84364 -9.86894 29136 ft 396 kts 214°
2026-04-21 14:19 37.82085 -9.88870 29458 ft 398 kts 214°
2026-04-21 14:19 37.79800 -9.90850 29769 ft 400 kts 214°
2026-04-21 14:19 37.77502 -9.92839 30046 ft 402 kts 214°
2026-04-21 14:19 37.75183 -9.94846 30291 ft 405 kts 215°
2026-04-21 14:20 37.72852 -9.96860 30526 ft 408 kts 215°
2026-04-21 14:20 37.70503 -9.98889 30759 ft 410 kts 215°
2026-04-21 14:20 37.68172 -10.00901 31021 ft 412 kts 215°
2026-04-21 14:20 37.65802 -10.02945 31325 ft 413 kts 216°
2026-04-21 14:21 37.63426 -10.04992 31622 ft 414 kts 216°
2026-04-21 14:21 37.61047 -10.07039 31895 ft 415 kts 216°
2026-04-21 14:21 37.58656 -10.09095 32188 ft 416 kts 216°
2026-04-21 14:21 37.56265 -10.11149 32455 ft 417 kts 217°
2026-04-21 14:22 37.53862 -10.13212 32708 ft 418 kts 217°
2026-04-21 14:22 37.51457 -10.15275 32949 ft 420 kts 217°
2026-04-21 14:22 37.49038 -10.17348 33203 ft 421 kts 217°
2026-04-21 14:22 37.46617 -10.19421 33435 ft 422 kts 217°
2026-04-21 14:23 37.44185 -10.21503 33673 ft 423 kts 218°
2026-04-21 14:23 37.41750 -10.23585 33882 ft 424 kts 218°
2026-04-21 14:23 37.39303 -10.25676 34101 ft 425 kts 218°
2026-04-21 14:23 37.36863 -10.27759 34334 ft 424 kts 218°
2026-04-21 14:24 37.34418 -10.29846 34547 ft 425 kts 218°
2026-04-21 14:24 37.31984 -10.31922 34741 ft 425 kts 218°
2026-04-21 14:24 37.29529 -10.34014 34952 ft 425 kts 218°
2026-04-21 14:24 37.27080 -10.36099 35158 ft 425 kts 218°
2026-04-21 14:25 37.24626 -10.38187 35352 ft 426 kts 218°
2026-04-21 14:25 37.22174 -10.40272 35538 ft 426 kts 218°
2026-04-21 14:25 37.19727 -10.42351 35729 ft 426 kts 218°
2026-04-21 14:25 37.17303 -10.44409 35920 ft 426 kts 218°
2026-04-21 14:26 37.15572 -10.45877 36047 ft 426 kts 218°
2026-04-21 14:26 37.13114 -10.47961 36224 ft 426 kts 218°
2026-04-21 14:26 37.10662 -10.50039 36407 ft 425 kts 218°
2026-04-21 14:26 37.08210 -10.52115 36581 ft 425 kts 218°
2026-04-21 14:27 37.05758 -10.54189 36751 ft 425 kts 218°
2026-04-21 14:27 37.00855 -10.58331 36815 ft 425 kts 218°
2026-04-21 14:28 36.95952 -10.62467 36817 ft 426 kts 218°
2026-04-21 14:28 36.91033 -10.66609 36818 ft 427 kts 218°
2026-04-21 14:29 36.86110 -10.70747 36822 ft 427 kts 218°
2026-04-21 14:29 36.81172 -10.74892 36823 ft 428 kts 218°
2026-04-21 14:30 36.76222 -10.79041 36826 ft 429 kts 218°
2026-04-21 14:30 36.71260 -10.83192 36828 ft 430 kts 218°
2026-04-21 14:31 36.66290 -10.87344 36831 ft 430 kts 219°
2026-04-21 14:31 36.61312 -10.91496 36830 ft 431 kts 219°
2026-04-21 14:32 36.56322 -10.95650 36830 ft 432 kts 219°
2026-04-21 14:32 36.51330 -10.99801 36833 ft 432 kts 219°
2026-04-21 14:33 36.46328 -11.03953 36832 ft 433 kts 219°
2026-04-21 14:33 36.41318 -11.08105 36835 ft 433 kts 219°
2026-04-21 14:34 36.36303 -11.12254 36833 ft 434 kts 219°
2026-04-21 14:34 36.31312 -11.16378 36838 ft 434 kts 219°
2026-04-21 14:35 36.26283 -11.20525 36838 ft 435 kts 219°
2026-04-21 14:35 36.21248 -11.24672 36838 ft 435 kts 219°
2026-04-21 14:36 36.16201 -11.28822 36837 ft 436 kts 219°
2026-04-21 14:36 36.11255 -11.32883 36838 ft 436 kts 219°
2026-04-21 14:37 36.06192 -11.37034 36843 ft 437 kts 219°
2026-04-21 14:37 36.01127 -11.41182 36845 ft 437 kts 219°
2026-04-21 14:38 35.96055 -11.45331 36844 ft 438 kts 219°
2026-04-21 14:38 35.91091 -11.49655 36849 ft 436 kts 221°
2026-04-21 14:39 35.86164 -11.54041 36852 ft 437 kts 221°
2026-04-21 14:39 35.81213 -11.58403 36856 ft 438 kts 221°
2026-04-21 14:40 35.76247 -11.62754 36859 ft 438 kts 221°
2026-04-21 14:40 35.71270 -11.67106 37007 ft 439 kts 221°
2026-04-21 14:40 35.68784 -11.69277 37201 ft 438 kts 221°
2026-04-21 14:41 35.66299 -11.71446 37376 ft 438 kts 221°
2026-04-21 14:41 35.63816 -11.73611 37532 ft 437 kts 221°
2026-04-21 14:41 35.61335 -11.75774 37681 ft 437 kts 221°
2026-04-21 14:41 35.58855 -11.77933 37829 ft 437 kts 221°
2026-04-21 14:42 35.56378 -11.80089 37966 ft 437 kts 221°
2026-04-21 14:42 35.53897 -11.82247 38094 ft 437 kts 221°
2026-04-21 14:42 35.51419 -11.84399 38221 ft 436 kts 221°
2026-04-21 14:42 35.48941 -11.86551 38348 ft 436 kts 221°
2026-04-21 14:43 35.46497 -11.88671 38458 ft 436 kts 221°
2026-04-21 14:43 35.41539 -11.92966 38660 ft 436 kts 221°
2026-04-21 14:44 35.36590 -11.97248 38824 ft 436 kts 221°
2026-04-21 14:44 35.31635 -12.01528 38864 ft 435 kts 221°
2026-04-21 14:45 35.26680 -12.05802 38866 ft 436 kts 221°
2026-04-21 14:45 35.21726 -12.10069 38866 ft 436 kts 221°
2026-04-21 14:46 35.16749 -12.14348 38867 ft 437 kts 221°
2026-04-21 14:46 35.11770 -12.18622 38868 ft 438 kts 221°
2026-04-21 14:47 35.06786 -12.22894 38869 ft 438 kts 221°
2026-04-21 14:47 35.01797 -12.27165 38870 ft 438 kts 221°
2026-04-21 14:48 34.96796 -12.31438 38869 ft 439 kts 221°
2026-04-21 14:48 34.91795 -12.35706 38873 ft 439 kts 221°
2026-04-21 14:49 34.86784 -12.39975 38873 ft 440 kts 220°
2026-04-21 14:49 34.81765 -12.44245 38874 ft 440 kts 220°
2026-04-21 14:50 34.77592 -12.47790 38877 ft 441 kts 220°
2026-04-21 14:50 34.71743 -12.52751 38882 ft 441 kts 220°
2026-04-21 14:51 34.66713 -12.57011 38882 ft 441 kts 220°
2026-04-21 14:51 34.61667 -12.61278 38884 ft 442 kts 220°
2026-04-21 14:52 34.56620 -12.65538 38884 ft 442 kts 220°
2026-04-21 14:52 34.51567 -12.69798 38886 ft 442 kts 220°
2026-04-21 14:53 34.46506 -12.74058 38887 ft 443 kts 220°
2026-04-21 14:53 34.41445 -12.78312 38886 ft 443 kts 220°
2026-04-21 14:54 34.36373 -12.82569 38895 ft 444 kts 220°
2026-04-21 14:54 34.31298 -12.86822 38889 ft 444 kts 220°
2026-04-21 14:55 34.27129 -12.90313 38894 ft 444 kts 220°
2026-04-21 14:55 34.23542 -12.93321 38900 ft 444 kts 221°
2026-04-21 14:56 34.18475 -12.97601 38903 ft 445 kts 221°
2026-04-21 14:56 34.14339 -13.01092 38896 ft 445 kts 221°
2026-04-21 14:57 34.09260 -13.05367 38905 ft 445 kts 220°
2026-04-21 14:57 34.04175 -13.09640 38885 ft 446 kts 220°
2026-04-21 14:58 33.99087 -13.13909 38886 ft 446 kts 220°
2026-04-21 14:58 33.93993 -13.18177 38900 ft 446 kts 220°
2026-04-21 14:59 33.88893 -13.22443 38899 ft 447 kts 220°
2026-04-21 14:59 33.83788 -13.26708 38899 ft 447 kts 220°
2026-04-21 15:00 33.78710 -13.30943 38901 ft 447 kts 220°
2026-04-21 15:00 33.73592 -13.35205 38903 ft 448 kts 220°
2026-04-21 15:01 33.68472 -13.39463 38905 ft 448 kts 220°
2026-04-21 15:01 33.63551 -13.43550 38909 ft 448 kts 220°
2026-04-21 15:02 33.58420 -13.47805 38912 ft 448 kts 220°
2026-04-21 15:02 33.53285 -13.52057 38910 ft 448 kts 220°
2026-04-21 15:03 33.48150 -13.56303 38912 ft 449 kts 220°
2026-04-21 15:03 33.43010 -13.60546 38911 ft 449 kts 220°
2026-04-21 15:04 33.37862 -13.64790 38908 ft 449 kts 220°
2026-04-21 15:04 33.32711 -13.69030 38908 ft 450 kts 220°
2026-04-21 15:05 33.27589 -13.73239 38909 ft 450 kts 220°
2026-04-21 15:05 33.19851 -13.79588 38916 ft 450 kts 220°
2026-04-21 15:06 33.16849 -13.82047 38918 ft 450 kts 220°
2026-04-21 15:06 33.11673 -13.86274 38918 ft 451 kts 220°
2026-04-21 15:07 33.06485 -13.90477 38923 ft 451 kts 220°
2026-04-21 15:07 33.01297 -13.94680 38924 ft 451 kts 220°
2026-04-21 15:08 32.96104 -13.98883 38922 ft 451 kts 220°
2026-04-21 15:08 32.90910 -14.03080 38922 ft 451 kts 220°
2026-04-21 15:09 32.85710 -14.07277 38921 ft 452 kts 220°
2026-04-21 15:09 32.80503 -14.11472 38926 ft 452 kts 220°
2026-04-21 15:10 32.75332 -14.15633 38922 ft 452 kts 220°
2026-04-21 15:10 32.70118 -14.19822 38938 ft 452 kts 219°
2026-04-21 15:11 32.64905 -14.24005 38928 ft 453 kts 219°
2026-04-21 15:11 32.59687 -14.28186 38935 ft 453 kts 219°
2026-04-21 15:12 32.54469 -14.32361 38936 ft 453 kts 219°
2026-04-21 15:12 32.49243 -14.36535 38934 ft 453 kts 219°
2026-04-21 15:13 32.44020 -14.40702 38937 ft 453 kts 219°
2026-04-21 15:13 32.38793 -14.44866 38931 ft 453 kts 219°
2026-04-21 15:14 32.33568 -14.49023 38933 ft 453 kts 219°
2026-04-21 15:14 32.28343 -14.53174 38930 ft 453 kts 219°
2026-04-21 15:15 32.23114 -14.57321 38932 ft 453 kts 219°
2026-04-21 15:15 32.17890 -14.61460 38934 ft 453 kts 219°
2026-04-21 15:16 32.13941 -14.64584 38934 ft 453 kts 219°
2026-04-21 15:16 32.08707 -14.68719 38932 ft 453 kts 219°
2026-04-21 15:17 32.03475 -14.72849 38936 ft 453 kts 219°
2026-04-21 15:17 31.98236 -14.76976 38933 ft 453 kts 219°
2026-04-21 15:18 31.93029 -14.81074 38936 ft 453 kts 219°
2026-04-21 15:18 31.87751 -14.85222 38936 ft 453 kts 219°
2026-04-21 15:19 31.82501 -14.89341 38938 ft 454 kts 219°
2026-04-21 15:19 31.77283 -14.93430 38938 ft 454 kts 219°
2026-04-21 15:20 31.72030 -14.97541 38941 ft 454 kts 219°
2026-04-21 15:20 31.66768 -15.01652 38943 ft 454 kts 219°
2026-04-21 15:21 31.61490 -15.05771 38947 ft 454 kts 219°
2026-04-21 15:21 31.56220 -15.09878 38945 ft 455 kts 219°
2026-04-21 15:22 31.50953 -15.13977 38949 ft 455 kts 219°
2026-04-21 15:22 31.45715 -15.18047 38948 ft 455 kts 219°
2026-04-21 15:23 31.40407 -15.22167 38950 ft 455 kts 219°
2026-04-21 15:23 31.35132 -15.26255 38953 ft 455 kts 219°
2026-04-21 15:24 31.29899 -15.30258 38951 ft 456 kts 216°
2026-04-21 15:24 31.24320 -15.33847 38952 ft 458 kts 213°
2026-04-21 15:25 31.18723 -15.37414 38956 ft 458 kts 213°
2026-04-21 15:25 31.13141 -15.40973 38954 ft 458 kts 213°
2026-04-21 15:26 31.07549 -15.44532 38950 ft 458 kts 213°
2026-04-21 15:26 31.01958 -15.48086 38951 ft 457 kts 213°
2026-04-21 15:27 30.96365 -15.51636 38948 ft 457 kts 213°
2026-04-21 15:27 30.90779 -15.55177 38953 ft 457 kts 213°
2026-04-21 15:28 30.85344 -15.58617 38946 ft 457 kts 213°
2026-04-21 15:28 30.79755 -15.62151 38951 ft 457 kts 213°
2026-04-21 15:29 30.74165 -15.65680 38957 ft 457 kts 213°
2026-04-21 15:29 30.68574 -15.69205 38955 ft 457 kts 213°
2026-04-21 15:30 30.62983 -15.72726 38962 ft 457 kts 213°
2026-04-21 15:30 30.57393 -15.76241 38951 ft 457 kts 213°
2026-04-21 15:31 30.51803 -15.79752 38961 ft 457 kts 213°
2026-04-21 15:31 30.46212 -15.83258 38957 ft 457 kts 213°
2026-04-21 15:32 30.40623 -15.86759 38962 ft 456 kts 213°
2026-04-21 15:32 30.35037 -15.90253 38963 ft 456 kts 213°
2026-04-21 15:33 30.29468 -15.93732 38962 ft 456 kts 213°
2026-04-21 15:33 30.23885 -15.97215 38962 ft 456 kts 213°
2026-04-21 15:34 30.18302 -16.00693 38964 ft 456 kts 213°
2026-04-21 15:34 30.12727 -16.04162 38965 ft 455 kts 213°
2026-04-21 15:35 30.07152 -16.07627 38966 ft 455 kts 213°
2026-04-21 15:35 30.01583 -16.11083 38965 ft 454 kts 213°
2026-04-21 15:36 29.96015 -16.14535 38967 ft 454 kts 213°
2026-04-21 15:36 29.90510 -16.17943 38973 ft 453 kts 213°
2026-04-21 15:37 29.84980 -16.21361 38968 ft 453 kts 213°
2026-04-21 15:37 29.79431 -16.24787 38964 ft 452 kts 213°
2026-04-21 15:38 29.73890 -16.28204 38967 ft 452 kts 213°
2026-04-21 15:38 29.68390 -16.31592 38975 ft 451 kts 213°
2026-04-21 15:39 29.62859 -16.34994 38967 ft 450 kts 214°
2026-04-21 15:39 29.57341 -16.38384 38974 ft 450 kts 214°
2026-04-21 15:40 29.51823 -16.41768 38971 ft 449 kts 214°
2026-04-21 15:40 29.46314 -16.45145 38970 ft 449 kts 214°
2026-04-21 15:41 29.40816 -16.48510 38967 ft 448 kts 214°
2026-04-21 15:41 29.35316 -16.51872 38956 ft 447 kts 214°
2026-04-21 15:42 29.29824 -16.55226 38961 ft 447 kts 214°
2026-04-21 15:42 29.24334 -16.58573 38969 ft 447 kts 214°
2026-04-21 15:43 29.18846 -16.61915 38967 ft 446 kts 214°
2026-04-21 15:43 29.13365 -16.65250 38969 ft 446 kts 214°
2026-04-21 15:44 29.07886 -16.68578 38967 ft 446 kts 214°
2026-04-21 15:44 29.02406 -16.71904 38968 ft 446 kts 214°
2026-04-21 15:45 28.96970 -16.75199 38972 ft 445 kts 214°
2026-04-21 15:45 28.91494 -16.78513 38974 ft 445 kts 214°
2026-04-21 15:46 28.86021 -16.81823 38982 ft 445 kts 214°
2026-04-21 15:46 28.80550 -16.85127 38983 ft 445 kts 215°
2026-04-21 15:47 28.75081 -16.88426 38981 ft 445 kts 215°
2026-04-21 15:47 28.69610 -16.91722 38978 ft 445 kts 215°
2026-04-21 15:48 28.64189 -16.94984 38978 ft 444 kts 215°
2026-04-21 15:48 28.58725 -16.98268 38981 ft 444 kts 215°
2026-04-21 15:49 28.53259 -17.01550 38979 ft 444 kts 215°
2026-04-21 15:49 28.47798 -17.04824 38975 ft 443 kts 215°
2026-04-21 15:50 28.42342 -17.08092 38967 ft 443 kts 215°
2026-04-21 15:50 28.36925 -17.11333 38968 ft 443 kts 216°
2026-04-21 15:51 28.31441 -17.14609 38966 ft 442 kts 216°
2026-04-21 15:51 28.26040 -17.17833 38963 ft 442 kts 216°
2026-04-21 15:52 28.20603 -17.21075 38965 ft 441 kts 216°
2026-04-21 15:52 28.15180 -17.24304 38959 ft 441 kts 216°
2026-04-21 15:53 28.10628 -17.27010 38963 ft 441 kts 216°
2026-04-21 15:53 28.05209 -17.30233 38968 ft 439 kts 216°
2026-04-21 15:54 27.99816 -17.33492 38965 ft 437 kts 219°
2026-04-21 15:54 27.94757 -17.37222 38960 ft 433 kts 222°
2026-04-21 15:55 27.89734 -17.40981 38960 ft 433 kts 222°
2026-04-21 15:55 27.84744 -17.44704 38958 ft 432 kts 222°
2026-04-21 15:56 27.79724 -17.48441 38956 ft 432 kts 222°
2026-04-21 15:56 27.74715 -17.52166 38956 ft 431 kts 222°
2026-04-21 15:57 27.69711 -17.55883 38960 ft 430 kts 222°
2026-04-21 15:57 27.64713 -17.59591 38957 ft 429 kts 223°
2026-04-21 15:58 27.59727 -17.63287 38960 ft 429 kts 223°
2026-04-21 15:58 27.54740 -17.66979 38956 ft 428 kts 223°
2026-04-21 15:59 27.49766 -17.70657 38957 ft 428 kts 223°
2026-04-21 15:59 27.44792 -17.74332 38953 ft 427 kts 223°
2026-04-21 16:00 27.39828 -17.77995 38956 ft 427 kts 223°
2026-04-21 16:00 27.34869 -17.81650 38957 ft 426 kts 223°
2026-04-21 16:01 27.29911 -17.85301 38956 ft 426 kts 223°
2026-04-21 16:01 27.24960 -17.88942 38962 ft 425 kts 223°
2026-04-21 16:02 27.20013 -17.92579 38966 ft 425 kts 223°
2026-04-21 16:02 27.15075 -17.96205 38969 ft 423 kts 224°
2026-04-21 16:03 27.10148 -17.99818 38972 ft 423 kts 224°
2026-04-21 16:03 27.05256 -18.03400 38970 ft 422 kts 224°
2026-04-21 16:04 27.00348 -18.06990 38973 ft 421 kts 224°
2026-04-21 16:04 26.95448 -18.10571 38969 ft 420 kts 224°
2026-04-21 16:05 26.90558 -18.14141 38968 ft 419 kts 224°
2026-04-21 16:05 26.85682 -18.17697 38972 ft 418 kts 224°
2026-04-21 16:06 26.80813 -18.21244 38970 ft 417 kts 224°
2026-04-21 16:06 26.75951 -18.24781 38965 ft 416 kts 224°
2026-04-21 16:07 26.71101 -18.28307 38974 ft 415 kts 225°
2026-04-21 16:07 26.66257 -18.31825 38962 ft 415 kts 225°
2026-04-21 16:08 26.59005 -18.37084 38975 ft 414 kts 225°
2026-04-21 16:09 26.54185 -18.40575 38977 ft 413 kts 225°
2026-04-21 16:09 26.49368 -18.44061 38979 ft 412 kts 225°
2026-04-21 16:10 26.44559 -18.47537 38982 ft 411 kts 225°
2026-04-21 16:10 26.39791 -18.50980 38981 ft 411 kts 226°
2026-04-21 16:11 26.35000 -18.54437 38978 ft 410 kts 226°
2026-04-21 16:11 26.30187 -18.57906 38978 ft 409 kts 226°
2026-04-21 16:12 26.25446 -18.61320 38984 ft 408 kts 226°
2026-04-21 16:12 26.20682 -18.64747 38978 ft 407 kts 226°
2026-04-21 16:13 26.15923 -18.68166 38982 ft 407 kts 226°
2026-04-21 16:13 26.11170 -18.71580 38985 ft 406 kts 226°
2026-04-21 16:14 26.06425 -18.74983 38980 ft 406 kts 226°
2026-04-21 16:14 26.01687 -18.78378 38976 ft 405 kts 226°
2026-04-21 16:15 25.96951 -18.81770 38978 ft 405 kts 226°
2026-04-21 16:15 25.92218 -18.85154 38976 ft 404 kts 226°
2026-04-21 16:16 25.87487 -18.88533 38973 ft 404 kts 226°
2026-04-21 16:16 25.82759 -18.91909 38976 ft 404 kts 226°
2026-04-21 16:17 25.78031 -18.95282 38976 ft 404 kts 226°
2026-04-21 16:17 25.73305 -18.98650 38976 ft 404 kts 226°
2026-04-21 16:18 25.68574 -19.02017 38983 ft 404 kts 226°
2026-04-21 16:18 25.63843 -19.05382 38985 ft 404 kts 226°
2026-04-21 16:19 25.59109 -19.08745 38986 ft 404 kts 226°
2026-04-21 16:19 25.54375 -19.12106 38988 ft 404 kts 226°
2026-04-21 16:20 25.49640 -19.15463 38987 ft 404 kts 226°
2026-04-21 16:20 25.44936 -19.18796 38991 ft 404 kts 226°
2026-04-21 16:21 25.40199 -19.22148 38986 ft 404 kts 226°
2026-04-21 16:21 25.35459 -19.25499 38990 ft 404 kts 226°
2026-04-21 16:22 25.30722 -19.28845 38993 ft 404 kts 226°
2026-04-21 16:22 25.25986 -19.32187 38993 ft 404 kts 226°
2026-04-21 16:23 25.21248 -19.35527 38987 ft 404 kts 226°
2026-04-21 16:23 25.16509 -19.38865 38986 ft 404 kts 226°
2026-04-21 16:24 25.11774 -19.42197 38984 ft 404 kts 226°
2026-04-21 16:24 25.07038 -19.45526 38983 ft 404 kts 226°
2026-04-21 16:25 25.02302 -19.48854 38981 ft 404 kts 225°
2026-04-21 16:25 24.97574 -19.52171 38978 ft 404 kts 225°
2026-04-21 16:26 24.92822 -19.55500 38978 ft 404 kts 225°
2026-04-21 16:26 24.88073 -19.58826 38977 ft 404 kts 225°
2026-04-21 16:27 24.83326 -19.62148 38979 ft 405 kts 225°
2026-04-21 16:27 24.78567 -19.65475 38984 ft 406 kts 225°
2026-04-21 16:28 24.73796 -19.68807 38977 ft 406 kts 225°
2026-04-21 16:28 24.69019 -19.72139 38975 ft 407 kts 225°
2026-04-21 16:29 24.65041 -19.74912 38991 ft 408 kts 225°
2026-04-21 16:29 24.59432 -19.78818 38981 ft 409 kts 225°
2026-04-21 16:30 24.54626 -19.82161 38987 ft 409 kts 224°
2026-04-21 16:30 24.49807 -19.85510 38987 ft 410 kts 224°
2026-04-21 16:31 24.44986 -19.88858 38997 ft 411 kts 224°
2026-04-21 16:31 24.40150 -19.92213 38995 ft 411 kts 224°
2026-04-21 16:32 24.35343 -19.95545 38996 ft 412 kts 224°
2026-04-21 16:32 24.30499 -19.98899 38998 ft 412 kts 224°
2026-04-21 16:33 24.25658 -20.02246 38989 ft 411 kts 224°
2026-04-21 16:33 24.20818 -20.05593 38989 ft 411 kts 224°
2026-04-21 16:34 24.15980 -20.08935 38990 ft 412 kts 224°
2026-04-21 16:34 24.11132 -20.12280 38989 ft 412 kts 224°
2026-04-21 16:35 24.06285 -20.15621 38990 ft 412 kts 224°
2026-04-21 16:35 24.01436 -20.18960 38986 ft 412 kts 224°
2026-04-21 16:36 23.96593 -20.22293 38988 ft 412 kts 224°
2026-04-21 16:36 23.91740 -20.25629 38986 ft 412 kts 224°
2026-04-21 16:37 23.86890 -20.28960 38984 ft 412 kts 224°
2026-04-21 16:37 23.82033 -20.32294 38981 ft 412 kts 224°
2026-04-21 16:38 23.77172 -20.35627 38984 ft 413 kts 224°
2026-04-21 16:38 23.72308 -20.38958 38986 ft 413 kts 224°
2026-04-21 16:39 23.67437 -20.42291 38987 ft 413 kts 224°
2026-04-21 16:39 23.62562 -20.45624 38988 ft 414 kts 224°
2026-04-21 16:40 23.57684 -20.48956 38985 ft 414 kts 224°
2026-04-21 16:40 23.53624 -20.51727 38989 ft 414 kts 224°
2026-04-21 16:41 23.48730 -20.55065 38998 ft 415 kts 224°
2026-04-21 16:41 23.43041 -20.58941 39003 ft 415 kts 224°
2026-04-21 16:42 23.38140 -20.62277 38995 ft 416 kts 225°
2026-04-21 16:42 23.34030 -20.65072 39001 ft 416 kts 225°
2026-04-21 16:43 23.29126 -20.68404 39002 ft 416 kts 225°
2026-04-21 16:43 23.24219 -20.71736 38998 ft 416 kts 225°
2026-04-21 16:44 23.19314 -20.75063 39003 ft 415 kts 225°
2026-04-21 16:44 23.14414 -20.78385 39003 ft 415 kts 225°
2026-04-21 16:45 23.09511 -20.81705 39002 ft 415 kts 225°
2026-04-21 16:45 23.04613 -20.85020 38996 ft 415 kts 225°
2026-04-21 16:46 22.99713 -20.88330 38994 ft 414 kts 225°
2026-04-21 16:46 22.94819 -20.91637 38991 ft 414 kts 225°
2026-04-21 16:47 22.89965 -20.94913 38992 ft 414 kts 225°
2026-04-21 16:47 22.85080 -20.98208 38987 ft 413 kts 226°
2026-04-21 16:48 22.80197 -21.01497 38989 ft 413 kts 226°
2026-04-21 16:48 22.75280 -21.04808 38990 ft 413 kts 226°
2026-04-21 16:49 22.70400 -21.08090 38991 ft 413 kts 226°
2026-04-21 16:49 22.65554 -21.11348 38991 ft 413 kts 226°
2026-04-21 16:50 22.60676 -21.14623 38993 ft 413 kts 226°
2026-04-21 16:50 22.55795 -21.17898 38990 ft 413 kts 226°
2026-04-21 16:51 22.50916 -21.21169 38992 ft 413 kts 226°
2026-04-21 16:51 22.46038 -21.24437 38991 ft 412 kts 226°
2026-04-21 16:52 22.41162 -21.27699 38994 ft 412 kts 226°
2026-04-21 16:52 22.36290 -21.30958 38995 ft 412 kts 226°
2026-04-21 16:53 22.31422 -21.34210 38999 ft 411 kts 226°
2026-04-21 16:53 22.26551 -21.37462 38994 ft 411 kts 226°
2026-04-21 16:54 22.21692 -21.40703 38997 ft 411 kts 227°
2026-04-21 16:54 22.16836 -21.43939 38995 ft 410 kts 227°
2026-04-21 16:55 22.11985 -21.47170 38990 ft 410 kts 227°
2026-04-21 16:55 22.07135 -21.50397 38988 ft 409 kts 227°
2026-04-21 16:56 22.02296 -21.53614 38989 ft 409 kts 227°
2026-04-21 16:56 21.97491 -21.56806 38985 ft 408 kts 227°
2026-04-21 16:57 21.92657 -21.60015 38984 ft 408 kts 227°
2026-04-21 16:57 21.87831 -21.63216 38979 ft 407 kts 227°
2026-04-21 16:58 21.82972 -21.66436 38973 ft 407 kts 227°
2026-04-21 16:58 21.78176 -21.69612 38971 ft 407 kts 227°
2026-04-21 16:59 21.73355 -21.72803 38978 ft 407 kts 227°
2026-04-21 16:59 21.68527 -21.75996 38979 ft 407 kts 227°
2026-04-21 17:00 21.63697 -21.79187 38976 ft 408 kts 227°
2026-04-21 17:00 21.59650 -21.81859 38975 ft 408 kts 227°
2026-04-21 17:01 21.54028 -21.85568 38974 ft 408 kts 227°
2026-04-21 17:01 21.49185 -21.88760 38977 ft 408 kts 227°
2026-04-21 17:02 21.44343 -21.91951 38990 ft 408 kts 227°
2026-04-21 17:02 21.39371 -21.94997 38981 ft 423 kts 219°
2026-04-21 17:02 21.36575 -21.96140 38976 ft 437 kts 212°
2026-04-21 17:03 21.33568 -21.96923 38974 ft 453 kts 204°
2026-04-21 17:03 21.30381 -21.97294 38973 ft 469 kts 196°
2026-04-21 17:03 21.27079 -21.97280 38971 ft 476 kts 193°
2026-04-21 17:04 21.20454 -21.97186 38973 ft 476 kts 193°
2026-04-21 17:04 21.13837 -21.97118 38977 ft 476 kts 193°
2026-04-21 17:05 21.07254 -21.97056 38979 ft 476 kts 193°
2026-04-21 17:05 21.00628 -21.96993 38979 ft 476 kts 193°
2026-04-21 17:06 20.93960 -21.96929 38970 ft 476 kts 193°
2026-04-21 17:06 20.87402 -21.96863 38972 ft 474 kts 193°
2026-04-21 17:07 20.81879 -21.96812 38970 ft 474 kts 193°
2026-04-21 17:07 20.74223 -21.96738 38971 ft 473 kts 193°
2026-04-21 17:08 20.67633 -21.96676 38970 ft 473 kts 193°
2026-04-21 17:08 20.61060 -21.96612 38974 ft 472 kts 193°
2026-04-21 17:09 20.51213 -21.96518 38967 ft 471 kts 193°
2026-04-21 17:09 20.44674 -21.96455 38964 ft 470 kts 193°
2026-04-21 17:10 20.38144 -21.96393 38962 ft 469 kts 193°
2026-04-21 17:10 20.34877 -21.96363 38764 ft 468 kts 191°
2026-04-21 17:10 20.31660 -21.96340 38963 ft 458 kts 190°
2026-04-21 17:11 20.25323 -21.96285 38970 ft 456 kts 190°
2026-04-21 17:11 20.18959 -21.96230 38971 ft 457 kts 189°
2026-04-21 17:12 20.12600 -21.96169 38971 ft 457 kts 189°
2026-04-21 17:12 20.06246 -21.96107 38967 ft 457 kts 189°
2026-04-21 17:13 19.99886 -21.96046 38967 ft 457 kts 189°
2026-04-21 17:13 19.93530 -21.95984 38967 ft 457 kts 189°
2026-04-21 17:14 19.87219 -21.95923 38971 ft 457 kts 189°
2026-04-21 17:14 19.80865 -21.95861 38971 ft 456 kts 189°
2026-04-21 17:15 19.74515 -21.95800 38974 ft 456 kts 189°
2026-04-21 17:15 19.68169 -21.95739 38975 ft 456 kts 189°
2026-04-21 17:16 19.61826 -21.95678 38973 ft 456 kts 188°
2026-04-21 17:16 19.55485 -21.95618 38974 ft 455 kts 188°
2026-04-21 17:17 19.49159 -21.95557 38965 ft 454 kts 188°
2026-04-21 17:17 19.42864 -21.95497 38965 ft 452 kts 188°
2026-04-21 17:18 19.36575 -21.95438 38962 ft 452 kts 188°
2026-04-21 17:18 19.30297 -21.95379 38960 ft 451 kts 188°
2026-04-21 17:19 19.24025 -21.95319 38961 ft 450 kts 188°
2026-04-21 17:19 19.17765 -21.95259 38957 ft 449 kts 188°
2026-04-21 17:20 19.11520 -21.95199 38958 ft 448 kts 188°
2026-04-21 17:20 19.05288 -21.95139 38960 ft 448 kts 188°
2026-04-21 17:21 18.99068 -21.95080 38957 ft 447 kts 188°
2026-04-21 17:21 18.92855 -21.95022 38954 ft 446 kts 188°
2026-04-21 17:22 18.86653 -21.94963 38951 ft 445 kts 188°
2026-04-21 17:22 18.80462 -21.94905 38953 ft 445 kts 188°
2026-04-21 17:23 18.74267 -21.94847 38951 ft 444 kts 188°
2026-04-21 17:23 18.68086 -21.94789 38949 ft 444 kts 188°
2026-04-21 17:24 18.61905 -21.94731 38951 ft 444 kts 189°
2026-04-21 17:24 18.55731 -21.94674 38951 ft 444 kts 189°
2026-04-21 17:25 18.49560 -21.94616 38952 ft 444 kts 188°
2026-04-21 17:25 18.43424 -21.94559 38957 ft 444 kts 188°
2026-04-21 17:26 18.37244 -21.94502 38955 ft 444 kts 188°
2026-04-21 17:26 18.31068 -21.94444 38959 ft 444 kts 188°
2026-04-21 17:27 18.24902 -21.94387 38961 ft 444 kts 188°
2026-04-21 17:27 18.18725 -21.94329 38970 ft 443 kts 188°
2026-04-21 17:28 18.12553 -21.94272 38963 ft 443 kts 188°
2026-04-21 17:28 18.06396 -21.94215 38963 ft 443 kts 188°
2026-04-21 17:29 18.00238 -21.94158 38965 ft 442 kts 188°
2026-04-21 17:29 17.95124 -21.94110 38955 ft 441 kts 188°
2026-04-21 17:30 17.89015 -21.94052 38751 ft 437 kts 188°
2026-04-21 17:30 17.85968 -21.94024 38407 ft 439 kts 188°
2026-04-21 17:30 17.82916 -21.93999 37924 ft 441 kts 188°
2026-04-21 17:31 17.79830 -21.93972 37381 ft 443 kts 188°
2026-04-21 17:31 17.76744 -21.93943 36846 ft 444 kts 188°
2026-04-21 17:31 17.73652 -21.93915 36326 ft 445 kts 188°
2026-04-21 17:31 17.70564 -21.93936 35815 ft 442 kts 193°
2026-04-21 17:32 17.67579 -21.94504 35323 ft 430 kts 205°
2026-04-21 17:32 17.64854 -21.95697 34833 ft 421 kts 216°
2026-04-21 17:32 17.62472 -21.97421 34359 ft 413 kts 227°
2026-04-21 17:32 17.60496 -21.99575 33882 ft 409 kts 235°
2026-04-21 17:33 17.58669 -22.01865 33343 ft 411 kts 235°
2026-04-21 17:33 17.56823 -22.04166 32817 ft 414 kts 235°
2026-04-21 17:33 17.54961 -22.06478 32278 ft 414 kts 235°
2026-04-21 17:33 17.53091 -22.08797 31637 ft 420 kts 235°
2026-04-21 17:34 17.51192 -22.11153 30936 ft 425 kts 235°
2026-04-21 17:34 17.49275 -22.13530 30253 ft 428 kts 235°
2026-04-21 17:34 17.47357 -22.15904 29495 ft 425 kts 235°
2026-04-21 17:34 17.45454 -22.18258 28375 ft 425 kts 235°
2026-04-21 17:35 17.43521 -22.20657 26807 ft 435 kts 235°
2026-04-21 17:35 17.41565 -22.23083 25595 ft 436 kts 235°
2026-04-21 17:35 17.39612 -22.25495 24677 ft 430 kts 235°
2026-04-21 17:35 17.37691 -22.27866 23746 ft 425 kts 235°
2026-04-21 17:36 17.35788 -22.30219 22723 ft 421 kts 235°
2026-04-21 17:36 17.33930 -22.32514 22094 ft 406 kts 234°
2026-04-21 17:36 17.32141 -22.34719 21742 ft 386 kts 234°
2026-04-21 17:36 17.30459 -22.36793 21398 ft 376 kts 234°
2026-04-21 17:37 17.28759 -22.38901 20982 ft 383 kts 234°
2026-04-21 17:37 17.27038 -22.41037 20423 ft 385 kts 233°
2026-04-21 17:37 17.25350 -22.43128 19853 ft 385 kts 233°
2026-04-21 17:37 17.23626 -22.45259 19334 ft 381 kts 233°
2026-04-21 17:38 17.21919 -22.47367 18785 ft 377 kts 232°
2026-04-21 17:38 17.20231 -22.49450 18224 ft 375 kts 232°
2026-04-21 17:38 17.18557 -22.51515 17681 ft 369 kts 232°
2026-04-21 17:38 17.16911 -22.53542 17154 ft 363 kts 232°
2026-04-21 17:39 17.15286 -22.55542 16647 ft 358 kts 232°
2026-04-21 17:39 17.13685 -22.57514 16141 ft 353 kts 231°
2026-04-21 17:39 17.12106 -22.59458 15643 ft 349 kts 231°
2026-04-21 17:39 17.10549 -22.61375 15158 ft 344 kts 231°
2026-04-21 17:40 17.09008 -22.63271 14668 ft 340 kts 231°
2026-04-21 17:40 17.07483 -22.65148 14180 ft 337 kts 231°
2026-04-21 17:40 17.05978 -22.66999 13691 ft 333 kts 231°
2026-04-21 17:40 17.04484 -22.68837 13237 ft 328 kts 231°
2026-04-21 17:41 17.03019 -22.70636 12789 ft 323 kts 231°
2026-04-21 17:41 17.01574 -22.72410 12346 ft 318 kts 231°
2026-04-21 17:41 17.00151 -22.74158 11913 ft 314 kts 231°
2026-04-21 17:41 16.98745 -22.75884 11478 ft 310 kts 231°
2026-04-21 17:42 16.97356 -22.77588 11042 ft 306 kts 231°
2026-04-21 17:42 16.95983 -22.79273 10619 ft 303 kts 231°
2026-04-21 17:42 16.94627 -22.80934 10334 ft 295 kts 231°
2026-04-21 17:42 16.93325 -22.82529 10221 ft 281 kts 231°
2026-04-21 17:43 16.91921 -22.83900 9978 ft 277 kts 215°
2026-04-21 17:43 16.90141 -22.84568 9749 ft 278 kts 192°
2026-04-21 17:43 16.88161 -22.84601 9629 ft 285 kts 185°
2026-04-21 17:43 16.86201 -22.84581 9457 ft 286 kts 185°
2026-04-21 17:44 16.84217 -22.84563 9127 ft 285 kts 185°
2026-04-21 17:44 16.82255 -22.84545 8959 ft 280 kts 185°
2026-04-21 17:44 16.80309 -22.84530 8815 ft 277 kts 185°
2026-04-21 17:44 16.78416 -22.84513 8714 ft 267 kts 185°
2026-04-21 17:45 16.76577 -22.84499 8422 ft 263 kts 185°
2026-04-21 17:45 16.74742 -22.84488 8039 ft 263 kts 185°
2026-04-21 17:45 16.72915 -22.84477 7666 ft 263 kts 185°
2026-04-21 17:45 16.71087 -22.84467 7308 ft 262 kts 185°
2026-04-21 17:46 16.69262 -22.84455 6924 ft 263 kts 185°
2026-04-21 17:46 16.67438 -22.84443 6602 ft 261 kts 184°
2026-04-21 17:46 16.65640 -22.84430 6360 ft 256 kts 184°
2026-04-21 17:46 16.63857 -22.84418 5998 ft 256 kts 184°
2026-04-21 17:47 16.62076 -22.84408 5668 ft 255 kts 184°
2026-04-21 17:47 16.60322 -22.84397 5423 ft 251 kts 183°
2026-04-21 17:47 16.58551 -22.84388 4939 ft 258 kts 183°
2026-04-21 17:47 16.56768 -22.84517 4534 ft 256 kts 199°
2026-04-21 17:48 16.55710 -22.85025 4259 ft 253 kts 218°
2026-04-21 17:48 16.54350 -22.86971 3568 ft 254 kts 258°
2026-04-21 17:48 16.54104 -22.88743 3271 ft 245 kts 268°
2026-04-21 17:48 16.53970 -22.90484 3130 ft 231 kts 269°
2026-04-21 17:49 16.53865 -22.92093 2936 ft 220 kts 275°
2026-04-21 17:49 16.54260 -22.93567 2662 ft 210 kts 309°
2026-04-21 17:49 16.55327 -22.94516 2512 ft 203 kts 341°
2026-04-21 17:49 16.56330 -22.94752 2496 ft 201 kts
2026-04-21 17:50 16.57531 -22.94751 2496 ft 195 kts
2026-04-21 17:50 16.58903 -22.94752 2451 ft 201 kts
2026-04-21 17:50 16.60308 -22.94760 2178 ft 203 kts
2026-04-21 17:50 16.61732 -22.94774 1803 ft 207 kts
2026-04-21 17:51 16.63182 -22.94786 1433 ft 210 kts
2026-04-21 17:51 16.64648 -22.94802 1058 ft 210 kts
2026-04-21 17:51 16.66048 -22.94820 981 ft 186 kts
2026-04-21 17:51 16.67241 -22.94836 1008 ft 156 kts
2026-04-21 17:52 16.68232 -22.94854 993 ft 134 kts
2026-04-21 17:52 16.69196 -22.94864 993 ft 142 kts
2026-04-21 17:52 16.70168 -22.94886 806 ft 139 kts
2026-04-21 17:52 16.71132 -22.94896 559 ft 137 kts
2026-04-21 17:53 16.72097 -22.94883 316 ft 137 kts
2026-04-21 17:53 16.73036 -22.94871 204 ft 128 kts 359°
2026-04-21 17:53 16.73727 -22.94895 193 ft 70 kts
2026-04-21 17:53 16.74142 -22.94896 185 ft 36 kts 360°
2026-04-21 17:54 16.74251 -22.94821 195 ft 15 kts 53°
2026-04-21 17:54 16.74301 -22.94723 184 ft 13 kts 92°
2026-04-21 17:54 16.74261 -22.94699 184 ft 9 kts 161°
2026-04-21 17:54 16.74165 -22.94702 194 ft 17 kts 181°
2026-04-21 17:55 16.74029 -22.94697 197 ft 21 kts 177°
2026-04-21 17:55 16.73901 -22.94699 199 ft 15 kts 180°
2026-04-21 17:55 16.73785 -22.94696 212 ft 17 kts 178°
2026-04-21 17:55 16.73702 -22.94694 201 ft 9 kts 179°
2026-04-21 17:56 16.73629 -22.94684 202 ft 11 kts 148°
2026-04-21 17:56 16.73601 -22.94614 204 ft 11 kts 128°
2026-04-21 17:56 16.73531 -22.94599 200 ft 12 kts 180°
2026-04-21 17:56 16.73438 -22.94592 200 ft 15 kts 175°
2026-04-21 17:57 16.73329 -22.94595 206 ft 14 kts 179°
2026-04-21 17:57 16.73290 -22.94595 204 ft 0 kts 184°
2026-04-21 17:57 16.73289 -22.94596 204 ft 2 kts 184°
2026-04-21 17:57 16.73235 -22.94591 200 ft 10 kts 157°
2026-04-21 17:58 16.73228 -22.94579 209 ft 0 kts 92°
2026-04-21 17:58 16.73232 -22.94549 200 ft 8 kts 76°
2026-04-21 17:58 16.73235 -22.94498 203 ft 0 kts 89°